THORAD AGENA D DEB

Satellite information

Favourite Embed

Satellite Type and Status

DEBRISIN ORBIT

Key statistics

Satellite THORAD AGENA D DEB at a glance.

Uptime

20339

Days in orbit

Revolutions

≈ 14.0

Per day

Orbit

SSO

Sun Synchronous Orbit

Inclination

100.1

Latest

Satellite identification and parameters

Extended collection of information and parameters for THORAD AGENA D DEB.

Object identification

Identified? True

Debris? True

Object name: THORAD AGENA D DEB

International designator: 1970-025DW

Object number (NORAD): 4776

Object ID (CCSDS): 4776

Country: UNITED STATES OF AMERICA (US)

Current information (Y/N): Y

RCS size: SMALL

Orbital parameters

Period: 102.76 minutes

Inclination: 100.1235 deg

SMA: 7267.348 km

Apoapsis: 900.397 km

Periapsis: 878.03 km

RAAN: 275.4619 deg

Eccentricy: 0.00153887

Argument of periapsis: 155.1869 deg

Mean anomaly: 235.0421 deg

Mean motion: 14.01324793 rev/day

Mean motion (dot): 0.00003733 rev/day2

B* drag term: 0.002509197 1/REarth

Two-line elements (TLE)

Creation date: Dec. 12, 2025, 3:16 a.m.

Reference frame: TEME

Reference center: EARTH

Epoch: Dec. 11, 2025, 6:05 p.m. UTC

TLE line 0: 0 THORAD AGENA D DEB

TLE line 1: 1 04776U 70025DW 25345.75355182 .00003733 00000-0 25092-2 0 9999

TLE line 2: 2 04776 100.1235 275.4619 0015389 155.1869 235.0421 14.01324793711250

Live tracking on map

Real-time ground track for satellite THORAD AGENA D DEB.

In-orbit conjunctions

A list of the most updated potential collisions computed for object THORAD AGENA D DEB.

Target Orbit TCA Probability of collision Miss distance Type
COSMOS 1266 LEO 2025-07-15 09:35:43 0.001075971 507.0 (m) PAYLOAD
METEOR 1-12 LEO 2025-02-17 16:16:41 0.0001713096 402.0 (m) PAYLOAD

Associated space launch

Meteorological research and development satellite

THORAD AGENA D DEB was lifted into orbit during the mission ‘Thorad SLV-2G Agena D | Nimbus 4’, on board a Thorad SLV-2G Agena D space rocket.

The launch took place on April 8, 1970, 8:17 a.m. from Space Launch Complex 2E.

For more information about the launch, click the button.

Launch to space Thorad SLV-2G Agena D | Nimbus 4
Thorad SLV-2G Agena D | Nimbus 4

Agency: N/A

Status: Launch Successful

Launch date: April 8, 1970, 8:17 a.m. UTC

Rocket: Thorad SLV-2G Agena D

Launch pad: Space Launch Complex 2E

Location: Vandenberg SFB, CA, USA

...

Latest news about this satellite

There are no fresh news available about this satellite. Check back as we update our databases every day.


Newsletter sign-up

Weekly statistics, charts and insights to help you stay on top of the space industry.